[[{"header":{"parameterUnit":"m.s-1","parameterCategory":1,"la1":30.2992,"la2":30.254,"lo1":-89.0895,"lo2":-89.0443,"dy":0.0025,"dx":0.0025,"nx":19,"ny":19,"refTime":"2026-03-29T21:00:00:Z","depth":0,"parameterNumber":2,"parameterNumberName":"U-component_of_WINDS"},"data":[0,0,0,-4.1994,-4.1997,-4.2109,-4.2109,-4.2254,-4.2255,0,0,0,0,0,0,0,0,0,0,0,-4.1963,-4.1964,-4.1994,-4.1997,-4.2109,-4.2109,-4.2253,-4.2255,0,0,0,0,0,0,0,0,0,0,0,-4.1962,-4.1963,-4.1965,-4.1997,-4.2109,-4.2109,-4.2253,-4.2168,0,0,0,0,0,0,0,0,0,0,-4.2059,-4.2031,-4.1963,-4.1965,-4.1998,-4.2109,-4.2109,-4.2164,-4.2173,-4.2204,0,-4.2232,0,-4.2246,-4.2265,-4.2265,0,0,0,-4.1995,-4.2023,-4.2052,-4.1965,-4.1999,-4.2108,-4.2058,-4.2169,-4.218,-4.2216,-4.2234,-4.2239,-4.2248,-4.2266,-4.2267,-4.2449,-4.245,0,0,-4.1989,-4.1983,-4.2045,-4.206,-4.2043,-4.2054,-4.2061,-4.2176,-4.2194,-4.2235,-4.2243,-4.2251,-4.2267,-4.2268,-4.2448,-4.245,0,0,0,-4.1972,-4.1979,-4.2005,-4.2054,-4.2074,-4.2057,-4.2066,-4.2189,-4.2198,-4.2244,-4.2253,-4.2268,-4.2269,-4.2447,-4.2449,-4.2488,0,0,0,-4.1969,-4.1969,-4.2002,-4.2,-4.2072,-4.2133,-4.2077,-4.219,-4.2203,-4.2252,-4.2268,-4.2271,-4.2446,-4.2448,-4.2484,-4.2506,0,0,0,-4.1955,-4.1968,-4.1984,-4.1999,-4.2048,-4.2131,-4.2147,-4.2193,-4.2208,-4.2266,-4.2271,-4.2446,-4.2448,-4.2481,-4.2501,-4.2551,0,0,0,-4.1938,-4.2017,-4.1985,-4.2077,-4.2047,-4.2156,-4.2146,-4.2228,-4.2281,-4.2268,-4.2447,-4.2449,-4.2481,-4.2498,-4.2548,-4.259,-4.2608,0,0,-4.2035,-4.2029,-4.2084,-4.2058,-4.2171,-4.2139,-4.2258,-4.2312,-4.2323,-4.2406,-4.2411,-4.2485,-4.2501,-4.255,-4.2714,-4.2728,0,0,0,-4.2112,-4.2151,-4.2183,-4.2234,-4.2279,-4.2318,-4.2355,-4.2376,-4.2447,-4.2365,-4.2518,-4.2528,-4.2557,-4.2577,-4.2589,-4.2614,-4.2459,-4.2458,-4.2458,-4.2239,-4.2249,-4.234,-4.2364,-4.2415,-4.2453,-4.2494,-4.2528,-4.2523,-4.256,-4.2583,-4.2681,-4.2705,-4.2714,-4.274,-4.2609,-4.2609,-4.2609,-4.2609,-4.238,-4.2436,-4.243,-4.2515,-4.2526,-4.2597,-4.2638,-4.2633,-4.27,-4.2664,-4.269,-4.2647,-4.2729,-4.2752,-4.2612,-4.2612,-4.2611,-4.2611,-4.2611,-4.2462,-4.249,-4.2515,-4.2591,-4.2648,-4.267,-4.2736,-4.2743,-4.2751,-4.2777,-4.2802,-4.2802,-4.28,-4.2789,-4.279,-4.279,-4.279,-4.279,-4.2791,-4.2536,-4.2563,-4.2617,-4.2672,-4.2706,-4.2752,-4.2793,-4.2826,-4.2865,-4.2865,-4.2866,-4.2856,-4.2736,-4.2704,-4.2796,-4.2795,-4.2794,-4.2794,-4.2793,-4.267,-4.2641,-4.2725,-4.276,-4.2825,-4.288,-4.2891,-4.2959,-4.2988,-4.302,-4.3006,-4.2917,-4.2911,-4.2902,-4.2875,-4.3005,-4.3005,-4.3005,-4.3005,-4.2737,-4.2736,-4.2824,-4.2878,-4.2932,-4.295,-4.3044,-4.3077,-4.3106,-4.3124,-4.3108,-4.3074,-4.3064,-4.3064,-4.3051,-4.3026,-4.3192,-4.3192,-4.3192,-4.282,-4.2824,-4.2902,-4.2931,-4.2983,-4.3027,-4.3115,-4.3177,-4.3205,-4.32,-4.3139,-4.3131,-4.3077,-4.3059,-4.3049,-4.3029,-4.2984,0,0]},{"header":{"parameterUnit":"m.s-1","parameterCategory":1,"la1":30.2992,"la2":30.254,"lo1":-89.0895,"lo2":-89.0443,"dy":0.0025,"dx":0.0025,"nx":19,"ny":19,"refTime":"2026-03-29T21:00:00:Z","depth":0,"parameterNumber":3,"parameterNumberName":"V-component_of_WINDS"},"data":[0,0,0,3.4357,3.4359,3.4471,3.4471,3.4607,3.4608,0,0,0,0,0,0,0,0,0,0,0,3.4321,3.4322,3.4357,3.436,3.4471,3.4472,3.4607,3.4608,0,0,0,0,0,0,0,0,0,0,0,3.4321,3.4322,3.4323,3.436,3.4471,3.4472,3.4607,3.4525,0,0,0,0,0,0,0,0,0,0,3.4418,3.4382,3.4322,3.4323,3.4361,3.4471,3.4472,3.4521,3.453,3.4554,0,3.4576,0,3.4595,3.4617,3.4618,0,0,0,3.4361,3.4374,3.4407,3.4323,3.4362,3.4471,3.4421,3.4526,3.4536,3.4566,3.4578,3.4584,3.4597,3.4618,3.4619,3.4759,3.476,0,0,3.4355,3.4339,3.44,3.4414,3.4398,3.4418,3.4425,3.4532,3.4544,3.4579,3.4587,3.4599,3.4619,3.462,3.4759,3.4759,0,0,0,3.4336,3.4335,3.4365,3.4408,3.4429,3.4421,3.4429,3.4539,3.455,3.4588,3.4601,3.462,3.4621,3.4758,3.4759,3.4773,0,0,0,3.4333,3.4324,3.4362,3.4354,3.4427,3.4485,3.4433,3.4543,3.4556,3.46,3.462,3.4623,3.4757,3.4758,3.4771,3.4782,0,0,0,3.4315,3.4322,3.4337,3.4353,3.44,3.4484,3.4502,3.4546,3.4563,3.4618,3.4623,3.4757,3.4758,3.477,3.4779,3.4815,0,0,0,3.429,3.4346,3.4337,3.4404,3.4399,3.4493,3.4501,3.4571,3.462,3.462,3.4757,3.4759,3.4769,3.4778,3.4813,3.4842,3.4853,0,0,3.4351,3.4353,3.4393,3.4389,3.448,3.4477,3.457,3.4628,3.4647,3.472,3.4724,3.4772,3.4779,3.4815,3.4918,3.4926,0,0,0,3.4407,3.4436,3.4464,3.4511,3.4559,3.4601,3.4647,3.4669,3.4733,3.4682,3.4795,3.48,3.4821,3.4835,3.4843,3.4862,3.4765,3.4765,3.4765,3.4469,3.4493,3.4562,3.46,3.4645,3.4695,3.4733,3.4771,3.4779,3.4806,3.4828,3.4888,3.4904,3.491,3.493,3.4845,3.4845,3.4845,3.4845,3.456,3.4606,3.4619,3.4692,3.4716,3.4777,3.4827,3.4831,3.4891,3.4873,3.4893,3.4871,3.4918,3.4937,3.4846,3.4846,3.4846,3.4846,3.4846,3.4603,3.4629,3.4657,3.4729,3.4782,3.4818,3.4876,3.4896,3.4914,3.4934,3.496,3.496,3.4963,3.4946,3.4946,3.4946,3.4946,3.4946,3.4946,3.4636,3.4668,3.4715,3.4773,3.4807,3.4854,3.4906,3.4939,3.4982,3.4991,3.4992,3.4998,3.4919,3.4898,3.495,3.4949,3.4949,3.4948,3.4948,3.472,3.4705,3.4777,3.4812,3.4883,3.4935,3.4961,3.5028,3.5059,3.5087,3.509,3.5028,3.503,3.5025,3.5008,3.5085,3.5085,3.5085,3.5085,3.4756,3.476,3.484,3.4894,3.495,3.4981,3.5063,3.5105,3.5145,3.5165,3.5157,3.5137,3.5131,3.5136,3.5129,3.5113,3.5215,3.5215,3.5215,3.4809,3.482,3.4886,3.4927,3.4985,3.5034,3.5111,3.5172,3.5215,3.5221,3.5182,3.5177,3.5144,3.5132,3.5136,3.5123,3.5096,0,0]}]]